Avoca, PA

4:45 AM EST on November 22, 2019 (GMT -0500)
Wilkes-Barre-Scranton International

Weather History for KAVP - September, 2019

Change the Weather History Date:

Sunday, September 29, 2019

  Actual Average Record
Temperature  
Mean Temperature 69 °F 57 °F  
Max Temperature 77 °F 67 °F 85 °F (1921)
Min Temperature 60 °F 47 °F 29 °F (2000)
Degree Days  
Heating Degree Days 0 9  
Month to date heating degree days 32 127  
Since 1 July heating degree days 33 153  
Cooling Degree Days 4 1  
Month to date cooling degree days 91 53  
Year to date cooling degree days 830 577  
Growing Degree Days 20 (Base 50)    
Moisture  
Dew Point 55 °F    
Average Humidity 62    
Maximum Humidity 87    
Minimum Humidity 36    
Precipitation  
Precipitation 0.00 in 0.14 in 2.00 in (1924)
Month to date precipitation 1.14 3.93  
Year to date precipitation 38.80 28.96  
Sea Level Pressure  
Sea Level Pressure 30.24 in    
Wind  
Wind Speed 7 mph (NNE)    
Max Wind Speed 16 mph    
Max Gust Speed 20 mph    
Visibility 10 miles    
Events      
T = Trace of Precipitation, MM = Missing Value Source: NWS Daily Summary

Daily Weather History Graph

Daily Weather History Graph

Search for Another Location

Airport or City:

Astronomy

Sep. 29, 2019 Rise Set
Actual Time 6:57 AM EDT 6:48 PM EDT
Civil Twilight 6:29 AM EDT 7:16 PM EDT
Nautical Twilight 5:57 AM EDT 7:48 PM EDT
Astronomical Twilight 5:25 AM EDT 8:20 PM EDT
Moon 7:45 AM EDT (9/29) 7:47 PM EDT (9/29)
Length of Visible Light 12h 46m
Length of Day
11h 51m
New Moon, 1% of the Moon is Illuminated
Sep 29
New Moon
Oct 5
First Quarter
Oct 13
Full
Oct 21
Last Quarter
Oct 27
New

Hourly Weather History & Observations

Time (EDT) Temp. Dew Point Humidity Pressure Visibility Wind Dir Wind Speed Gust Speed Precip Events Conditions
12:54 AM 69.1 °F 64.0 °F 84% 30.13 in 9.0 mi ENE 4.6 mph - N/A   Clear
1:54 AM 68.0 °F 64.0 °F 87% 30.14 in 10.0 mi Calm Calm - N/A   Partly Cloudy
2:12 AM 69.1 °F 64.0 °F 84% 30.17 in 10.0 mi Variable 4.6 mph - N/A   Mostly Cloudy
2:32 AM 69.1 °F 63.0 °F 81% 30.17 in 10.0 mi Variable 4.6 mph - N/A   Scattered Clouds
2:40 AM 69.1 °F 63.0 °F 81% 30.17 in 10.0 mi NE 4.6 mph - N/A   Mostly Cloudy
2:54 AM 69.1 °F 63.0 °F 81% 30.15 in 10.0 mi Variable 4.6 mph - N/A   Mostly Cloudy
3:54 AM 69.1 °F 63.0 °F 81% 30.17 in 10.0 mi NNW 6.9 mph - N/A   Overcast
4:54 AM 68.0 °F 63.0 °F 84% 30.19 in 10.0 mi NNW 9.2 mph - N/A   Overcast
5:08 AM 68.0 °F 62.1 °F 81% 30.21 in 10.0 mi NNW 8.1 mph - N/A   Overcast
5:54 AM 66.9 °F 62.1 °F 84% 30.20 in 10.0 mi NW 5.8 mph - N/A   Overcast
6:54 AM 66.0 °F 59.0 °F 78% 30.24 in 10.0 mi NNE 12.7 mph - N/A   Overcast
7:32 AM 66.0 °F 57.0 °F 73% 30.27 in 10.0 mi North 6.9 mph - N/A   Overcast
7:54 AM 66.0 °F 55.9 °F 70% 30.26 in 10.0 mi NNE 11.5 mph - N/A   Overcast
8:16 AM 64.9 °F 55.0 °F 70% 30.28 in 10.0 mi NE 9.2 mph - N/A   Overcast
8:44 AM 66.0 °F 53.1 °F 63% 30.30 in 10.0 mi North 9.2 mph - N/A   Mostly Cloudy
8:54 AM 66.9 °F 54.0 °F 63% 30.29 in 10.0 mi NNE 10.4 mph - N/A   Mostly Cloudy
9:54 AM 68.0 °F 51.1 °F 55% 30.30 in 10.0 mi North 10.4 mph - N/A   Clear
10:54 AM 70.0 °F 51.1 °F 51% 30.32 in 10.0 mi North 10.4 mph - N/A   Clear
11:54 AM 71.1 °F 51.1 °F 49% 30.30 in 10.0 mi NNW 8.1 mph - N/A   Clear
12:54 PM 73.0 °F 51.1 °F 46% 30.28 in 10.0 mi NNW 8.1 mph - N/A   Clear
1:54 PM 75.0 °F 48.0 °F 38% 30.27 in 10.0 mi NNE 8.1 mph - N/A   Clear
2:54 PM 77.0 °F 48.0 °F 36% 30.26 in 10.0 mi North 10.4 mph - N/A   Clear
3:54 PM 75.9 °F 46.9 °F 36% 30.25 in 10.0 mi NE 6.9 mph - N/A   Clear
4:54 PM 75.0 °F 46.0 °F 36% 30.25 in 10.0 mi North 6.9 mph - N/A   Clear
5:54 PM 72.0 °F 46.0 °F 40% 30.27 in 10.0 mi NW 9.2 mph - N/A   Clear
6:54 PM 64.9 °F 50.0 °F 58% 30.28 in 10.0 mi ESE 3.5 mph - N/A   Clear
8:54 PM 64.0 °F 50.0 °F 60% 30.29 in 10.0 mi East 4.6 mph - N/A   Clear
9:54 PM 63.0 °F 50.0 °F 63% 30.28 in 10.0 mi East 5.8 mph - N/A   Clear
10:54 PM 63.0 °F 51.1 °F 65% 30.28 in 10.0 mi East 4.6 mph - N/A   Clear
11:54 PM 61.0 °F 52.0 °F 72% 30.30 in 10.0 mi ESE 4.6 mph - N/A   Clear